Time,TemperatureF,DewpointF,PressureIn,WindDirection,WindDirectionDegrees,WindSpeedMPH,WindSpeedGustMPH,Humidity,HourlyPrecipIn,Conditions,Clouds,dailyrainin,SoftwareType,DateUTC
2013-02-23 00:03:00,61.6,61.0,29.90,NNW,330,0.0,0.0,98,0.00,,---,0.00,VWS V14.01,2013-02-23 06:03:00,
2013-02-23 00:09:00,61.6,61.0,29.89,NE,44,0.0,0.0,98,0.00,,---,0.00,VWS V14.01,2013-02-23 06:09:00,
2013-02-23 00:14:00,61.6,61.0,29.89,NE,44,0.0,0.0,98,0.00,,---,0.00,VWS V14.01,2013-02-23 06:14:00,
2013-02-23 00:19:00,61.5,60.9,29.88,East,82,1.0,3.0,98,0.00,,---,0.00,VWS V14.01,2013-02-23 06:19:00,
2013-02-23 00:24:00,61.3,60.7,29.88,East,81,0.0,3.0,98,0.00,,---,0.00,VWS V14.01,2013-02-23 06:24:00,
2013-02-23 00:29:00,61.1,60.5,29.87,NE,55,2.0,2.0,98,0.00,,---,0.00,VWS V14.01,2013-02-23 06:29:00,
2013-02-23 00:34:00,61.0,60.4,29.88,NE,56,0.0,0.0,98,0.00,,---,0.00,VWS V14.01,2013-02-23 06:34:00,
2013-02-23 00:40:00,60.9,60.3,29.88,NE,52,0.0,1.0,98,0.00,,---,0.00,VWS V14.01,2013-02-23 06:40:00,
2013-02-23 00:45:00,60.8,60.2,29.88,North,353,0.0,1.0,98,0.00,,---,0.00,VWS V14.01,2013-02-23 06:45:00,
2013-02-23 00:50:00,60.7,60.1,29.88,ENE,68,0.0,0.0,98,0.00,,---,0.00,VWS V14.01,2013-02-23 06:50:00,
2013-02-23 00:55:00,60.6,60.0,29.88,NNW,340,1.0,1.0,98,0.00,,---,0.00,VWS V14.01,2013-02-23 06:55:00,
2013-02-23 01:00:00,60.5,59.9,29.88,North,356,0.0,0.0,98,0.00,,---,0.00,VWS V14.01,2013-02-23 07:00:00,
2013-02-23 01:06:00,60.3,59.7,29.87,ENE,70,0.0,4.0,98,0.00,,---,0.00,VWS V14.01,2013-02-23 07:06:00,
2013-02-23 01:11:00,60.3,59.7,29.87,ENE,58,0.0,1.0,98,0.00,,---,0.00,VWS V14.01,2013-02-23 07:11:00,
2013-02-23 01:16:00,60.2,59.6,29.88,ENE,58,0.0,0.0,98,0.00,,---,0.00,VWS V14.01,2013-02-23 07:16:00,
2013-02-23 01:21:00,60.0,59.4,29.87,NE,42,0.0,0.0,98,0.00,,---,0.00,VWS V14.01,2013-02-23 07:21:00,
2013-02-23 01:26:00,59.9,59.3,29.87,North,1,0.0,0.0,98,0.00,,---,0.00,VWS V14.01,2013-02-23 07:26:00,
2013-02-23 01:31:00,59.7,59.1,29.87,NNW,345,2.0,3.0,98,0.00,,---,0.00,VWS V14.01,2013-02-23 07:31:00,
2013-02-23 01:36:00,59.5,58.9,29.87,WSW,250,0.0,1.0,98,0.00,,---,0.00,VWS V14.01,2013-02-23 07:36:00,
2013-02-23 01:41:00,59.5,58.9,29.87,North,6,2.0,2.0,98,0.00,,---,0.00,VWS V14.01,2013-02-23 07:41:00,
2013-02-23 01:46:00,59.4,58.8,29.86,North,350,1.0,2.0,98,0.00,,---,0.00,VWS V14.01,2013-02-23 07:46:00,
2013-02-23 01:51:00,59.3,58.7,29.86,NE,52,1.0,1.0,98,0.01,,---,0.01,VWS V14.01,2013-02-23 07:51:00,
2013-02-23 01:56:00,59.2,58.6,29.86,NNE,12,0.0,1.0,98,0.01,,---,0.01,VWS V14.01,2013-02-23 07:56:00,
2013-02-23 02:01:00,59.2,58.6,29.86,NNE,13,0.0,1.0,98,0.01,,---,0.01,VWS V14.01,2013-02-23 08:01:00,
2013-02-23 02:06:00,59.1,58.5,29.86,North,3,0.0,1.0,98,0.02,,---,0.02,VWS V14.01,2013-02-23 08:06:00,
2013-02-23 02:11:00,59.0,58.4,29.86,NNW,343,1.0,2.0,98,0.04,,---,0.04,VWS V14.01,2013-02-23 08:11:00,
2013-02-23 02:16:00,59.0,58.4,29.86,NNW,338,0.0,1.0,98,0.04,,---,0.04,VWS V14.01,2013-02-23 08:16:00,
2013-02-23 02:21:00,58.9,58.6,29.86,NNE,20,0.0,1.0,99,0.04,,---,0.04,VWS V14.01,2013-02-23 08:21:00,
2013-02-23 02:26:00,58.9,58.6,29.87,NW,322,0.0,0.0,99,0.04,,---,0.04,VWS V14.01,2013-02-23 08:26:00,
2013-02-23 02:31:00,58.8,58.5,29.87,SSW,203,0.0,0.0,99,0.05,,---,0.05,VWS V14.01,2013-02-23 08:31:00,
2013-02-23 02:36:00,58.7,58.4,29.88,NNW,334,5.0,5.0,99,0.05,,---,0.05,VWS V14.01,2013-02-23 08:36:00,
2013-02-23 02:41:00,58.6,58.3,29.88,NW,316,2.0,4.0,99,0.05,,---,0.05,VWS V14.01,2013-02-23 08:41:00,
2013-02-23 02:46:00,58.4,58.1,29.87,East,89,2.0,2.0,99,0.05,,---,0.05,VWS V14.01,2013-02-23 08:46:00,
2013-02-23 02:51:00,58.4,57.8,29.88,WNW,290,2.0,3.0,98,0.05,,---,0.05,VWS V14.01,2013-02-23 08:51:00,
2013-02-23 02:56:00,58.2,57.6,29.88,North,8,2.0,2.0,98,0.04,,---,0.05,VWS V14.01,2013-02-23 08:56:00,
2013-02-23 03:01:00,58.1,57.5,29.88,NNW,337,1.0,1.0,98,0.04,,---,0.05,VWS V14.01,2013-02-23 09:01:00,
2013-02-23 03:06:00,58.0,57.4,29.89,NW,314,0.0,2.0,98,0.04,,---,0.05,VWS V14.01,2013-02-23 09:06:00,
2013-02-23 03:11:00,57.9,57.6,29.89,North,8,0.0,1.0,99,0.01,,---,0.05,VWS V14.01,2013-02-23 09:11:00,
2013-02-23 03:16:00,57.9,57.6,29.88,NW,311,1.0,1.0,99,0.02,,---,0.06,VWS V14.01,2013-02-23 09:16:00,
2013-02-23 03:21:00,57.8,57.5,29.88,NE,47,0.0,0.0,99,0.02,,---,0.06,VWS V14.01,2013-02-23 09:21:00,
2013-02-23 03:26:00,57.9,57.6,29.87,East,82,0.0,1.0,99,0.02,,---,0.06,VWS V14.01,2013-02-23 09:26:00,
2013-02-23 03:31:00,57.8,57.5,29.87,NE,53,1.0,5.0,99,0.01,,---,0.06,VWS V14.01,2013-02-23 09:31:00,
2013-02-23 03:36:00,57.7,57.4,29.87,East,82,1.0,1.0,99,0.01,,---,0.06,VWS V14.01,2013-02-23 09:36:00,
2013-02-23 03:41:00,57.8,57.5,29.88,ENE,70,4.0,4.0,99,0.01,,---,0.06,VWS V14.01,2013-02-23 09:41:00,
2013-02-23 03:46:00,57.9,57.6,29.87,NE,50,1.0,4.0,99,0.01,,---,0.06,VWS V14.01,2013-02-23 09:46:00,
2013-02-23 03:51:00,58.0,57.7,29.87,North,5,1.0,2.0,99,0.02,,---,0.07,VWS V14.01,2013-02-23 09:51:00,
2013-02-23 03:56:00,58.0,57.7,29.87,ENE,68,0.0,1.0,99,0.03,,---,0.08,VWS V14.01,2013-02-23 09:56:00,
2013-02-23 04:01:00,58.0,57.7,29.87,SE,146,1.0,1.0,99,0.07,,---,0.12,VWS V14.01,2013-02-23 10:01:00,
2013-02-23 04:06:00,58.1,57.8,29.87,SE,142,1.0,1.0,99,0.17,,---,0.22,VWS V14.01,2013-02-23 10:06:00,
2013-02-23 04:11:00,58.1,57.8,29.88,NW,316,0.0,2.0,99,0.33,,---,0.38,VWS V14.01,2013-02-23 10:11:00,
2013-02-23 04:16:00,58.0,57.7,29.89,SE,135,1.0,2.0,99,0.40,,---,0.46,VWS V14.01,2013-02-23 10:16:00,
2013-02-23 04:21:00,58.0,57.7,29.87,NNE,23,0.0,0.0,99,0.44,,---,0.50,VWS V14.01,2013-02-23 10:21:00,
2013-02-23 04:26:00,58.0,57.7,29.87,North,4,0.0,0.0,99,0.47,,---,0.53,VWS V14.01,2013-02-23 10:26:00,
2013-02-23 04:31:00,58.0,57.7,29.88,SE,142,1.0,1.0,99,0.48,,---,0.54,VWS V14.01,2013-02-23 10:31:00,
2013-02-23 04:36:00,58.0,57.7,29.87,SE,141,0.0,0.0,99,0.56,,---,0.62,VWS V14.01,2013-02-23 10:36:00,
2013-02-23 04:41:00,57.9,57.6,29.86,ESE,102,0.0,1.0,99,0.59,,---,0.65,VWS V14.01,2013-02-23 10:41:00,
2013-02-23 04:46:00,57.9,57.6,29.87,NNE,33,0.0,0.0,99,0.61,,---,0.67,VWS V14.01,2013-02-23 10:46:00,
2013-02-23 04:51:00,57.9,57.6,29.89,SSE,150,0.0,0.0,99,0.61,,---,0.68,VWS V14.01,2013-02-23 10:51:00,
2013-02-23 04:56:00,57.9,57.6,29.89,North,359,1.0,1.0,99,0.61,,---,0.69,VWS V14.01,2013-02-23 10:56:00,
2013-02-23 05:01:00,58.0,57.7,29.89,NW,325,1.0,1.0,99,0.59,,---,0.70,VWS V14.01,2013-02-23 11:01:00,
2013-02-23 05:06:00,57.9,57.6,29.90,NNE,23,1.0,4.0,99,0.51,,---,0.71,VWS V14.01,2013-02-23 11:06:00,
2013-02-23 05:11:00,57.8,57.5,29.91,North,4,0.0,2.0,99,0.39,,---,0.72,VWS V14.01,2013-02-23 11:11:00,
2013-02-23 05:16:00,57.4,57.1,29.89,ENE,76,2.0,3.0,99,0.28,,---,0.73,VWS V14.01,2013-02-23 11:16:00,
2013-02-23 05:21:00,57.3,57.0,29.89,NE,44,1.0,3.0,99,0.25,,---,0.74,VWS V14.01,2013-02-23 11:21:00,
2013-02-23 05:26:00,57.1,56.8,29.89,NNW,333,2.0,2.0,99,0.22,,---,0.74,VWS V14.01,2013-02-23 11:26:00,
2013-02-23 05:31:00,57.0,56.4,29.90,NNW,348,3.0,5.0,98,0.21,,---,0.75,VWS V14.01,2013-02-23 11:31:00,
2013-02-23 05:36:00,56.6,56.0,29.91,North,1,0.0,2.0,98,0.15,,---,0.76,VWS V14.01,2013-02-23 11:36:00,
2013-02-23 05:41:00,56.5,55.9,29.91,NNW,332,0.0,0.0,98,0.12,,---,0.77,VWS V14.01,2013-02-23 11:41:00,
2013-02-23 05:46:00,56.4,55.8,29.90,ESE,109,1.0,2.0,98,0.12,,---,0.79,VWS V14.01,2013-02-23 11:46:00,
2013-02-23 05:51:00,56.3,55.8,29.91,ENE,68,1.0,2.0,98,0.11,,---,0.79,VWS V14.01,2013-02-23 11:51:00,
2013-02-23 05:56:00,56.2,55.7,29.91,NNW,330,2.0,2.0,98,0.11,,---,0.80,VWS V14.01,2013-02-23 11:56:00,
2013-02-23 06:01:00,56.2,55.7,29.91,ENE,68,0.0,1.0,98,0.11,,---,0.81,VWS V14.01,2013-02-23 12:01:00,
2013-02-23 06:06:00,56.1,55.5,29.92,North,355,2.0,2.0,98,0.12,,---,0.83,VWS V14.01,2013-02-23 12:06:00,
2013-02-23 06:11:00,56.0,55.5,29.90,NNE,25,1.0,2.0,98,0.13,,---,0.85,VWS V14.01,2013-02-23 12:11:00,
2013-02-23 06:16:00,55.9,55.3,29.91,NW,306,0.0,4.0,98,0.13,,---,0.86,VWS V14.01,2013-02-23 12:16:00,
2013-02-23 06:21:00,55.8,55.2,29.91,North,11,1.0,2.0,98,0.12,,---,0.86,VWS V14.01,2013-02-23 12:21:00,
2013-02-23 06:26:00,55.7,55.2,29.90,NNE,21,2.0,2.0,98,0.12,,---,0.86,VWS V14.01,2013-02-23 12:26:00,
2013-02-23 06:31:00,55.6,55.0,29.90,NNE,26,2.0,3.0,98,0.11,,---,0.86,VWS V14.01,2013-02-23 12:31:00,
2013-02-23 06:36:00,55.5,55.0,29.90,ENE,58,1.0,2.0,98,0.10,,---,0.86,VWS V14.01,2013-02-23 12:36:00,
2013-02-23 06:41:00,55.5,55.0,29.89,ENE,58,6.0,8.0,98,0.09,,---,0.86,VWS V14.01,2013-02-23 12:41:00,
2013-02-23 06:46:00,55.4,54.8,29.91,NW,307,2.0,2.0,98,0.08,,---,0.86,VWS V14.01,2013-02-23 12:46:00,
2013-02-23 06:51:00,55.4,54.8,29.92,NNW,337,0.0,2.0,98,0.07,,---,0.86,VWS V14.01,2013-02-23 12:51:00,
2013-02-23 06:56:00,55.4,54.8,29.91,ENE,70,1.0,2.0,98,0.06,,---,0.86,VWS V14.01,2013-02-23 12:56:00,
2013-02-23 07:01:00,55.4,54.8,29.90,NE,41,2.0,3.0,98,0.05,,---,0.86,VWS V14.01,2013-02-23 13:01:00,
2013-02-23 07:06:00,55.3,54.8,29.90,North,6,0.0,1.0,98,0.05,,---,0.87,VWS V14.01,2013-02-23 13:06:00,
2013-02-23 07:11:00,55.3,54.8,29.91,East,85,1.0,2.0,98,0.03,,---,0.87,VWS V14.01,2013-02-23 13:11:00,
2013-02-23 07:16:00,55.3,54.8,29.92,ENE,67,0.0,0.0,98,0.01,,---,0.87,VWS V14.01,2013-02-23 13:16:00,
2013-02-23 07:21:00,55.2,54.7,29.92,ENE,76,5.0,5.0,98,0.01,,---,0.87,VWS V14.01,2013-02-23 13:21:00,
2013-02-23 07:26:00,55.2,54.7,29.93,SE,136,2.0,3.0,98,0.01,,---,0.87,VWS V14.01,2013-02-23 13:26:00,
2013-02-23 07:31:00,55.3,54.8,29.94,ESE,114,1.0,2.0,98,0.01,,---,0.87,VWS V14.01,2013-02-23 13:31:00,
2013-02-23 07:36:00,55.2,54.7,29.93,ENE,64,2.0,4.0,98,0.01,,---,0.87,VWS V14.01,2013-02-23 13:36:00,
2013-02-23 07:41:00,55.3,54.8,29.92,ENE,63,1.0,1.0,98,0.01,,---,0.87,VWS V14.01,2013-02-23 13:41:00,
2013-02-23 07:46:00,55.4,54.8,29.92,ENE,68,1.0,2.0,98,0.01,,---,0.87,VWS V14.01,2013-02-23 13:46:00,
2013-02-23 07:51:00,55.5,55.0,29.92,ENE,73,2.0,3.0,98,0.01,,---,0.87,VWS V14.01,2013-02-23 13:51:00,
2013-02-23 07:56:00,55.4,54.8,29.92,NE,56,0.0,1.0,98,0.01,,---,0.87,VWS V14.01,2013-02-23 13:56:00,
2013-02-23 08:01:00,55.4,54.8,29.92,East,82,2.0,2.0,98,0.01,,---,0.87,VWS V14.01,2013-02-23 14:01:00,
2013-02-23 08:06:00,55.5,55.0,29.92,North,353,1.0,3.0,98,0.00,,---,0.87,VWS V14.01,2013-02-23 14:06:00,
2013-02-23 08:11:00,55.4,54.8,29.92,NE,52,3.0,7.0,98,0.00,,---,0.87,VWS V14.01,2013-02-23 14:11:00,
2013-02-23 08:16:00,55.4,54.8,29.93,NE,49,3.0,8.0,98,0.00,,---,0.87,VWS V14.01,2013-02-23 14:16:00,
2013-02-23 08:21:00,55.4,54.8,29.93,East,97,2.0,8.0,98,0.00,,---,0.87,VWS V14.01,2013-02-23 14:21:00,
2013-02-23 08:26:00,55.5,55.0,29.93,ENE,68,1.0,3.0,98,0.00,,---,0.87,VWS V14.01,2013-02-23 14:26:00,
2013-02-23 08:31:00,55.6,55.0,29.93,ENE,68,1.0,2.0,98,0.00,,---,0.87,VWS V14.01,2013-02-23 14:31:00,
2013-02-23 08:36:00,55.7,55.2,29.93,ENE,60,1.0,2.0,98,0.00,,---,0.87,VWS V14.01,2013-02-23 14:36:00,
2013-02-23 08:41:00,55.8,55.2,29.93,East,98,4.0,5.0,98,0.00,,---,0.87,VWS V14.01,2013-02-23 14:41:00,
2013-02-23 08:46:00,56.1,55.5,29.93,NE,43,1.0,6.0,98,0.00,,---,0.87,VWS V14.01,2013-02-23 14:46:00,
2013-02-23 08:51:00,56.5,55.9,29.93,NE,46,0.0,2.0,98,0.00,,---,0.87,VWS V14.01,2013-02-23 14:51:00,
2013-02-23 08:56:00,56.5,55.9,29.93,NNW,345,1.0,3.0,98,0.00,,---,0.87,VWS V14.01,2013-02-23 14:56:00,
2013-02-23 09:01:00,56.7,56.1,29.93,North,359,1.0,2.0,98,0.00,,---,0.87,VWS V14.01,2013-02-23 15:01:00,
2013-02-23 09:06:00,56.8,56.0,29.93,NE,41,1.0,3.0,97,0.00,,---,0.87,VWS V14.01,2013-02-23 15:06:00,
2013-02-23 09:11:00,56.9,56.1,29.93,NNE,25,2.0,2.0,97,0.00,,---,0.87,VWS V14.01,2013-02-23 15:11:00,
2013-02-23 09:16:00,56.8,56.0,29.92,North,3,0.0,4.0,97,0.00,,---,0.87,VWS V14.01,2013-02-23 15:16:00,
2013-02-23 09:21:00,57.0,56.2,29.92,NNW,335,1.0,5.0,97,0.00,,---,0.87,VWS V14.01,2013-02-23 15:21:00,
2013-02-23 09:26:00,57.1,56.3,29.91,North,354,0.0,4.0,97,0.00,,---,0.87,VWS V14.01,2013-02-23 15:26:00,
2013-02-23 09:31:00,57.2,56.1,29.91,ENE,64,1.0,3.0,96,0.00,,---,0.87,VWS V14.01,2013-02-23 15:31:00,
2013-02-23 09:36:00,57.1,56.0,29.91,ENE,63,2.0,5.0,96,0.00,,---,0.87,VWS V14.01,2013-02-23 15:36:00,
2013-02-23 09:41:00,57.2,56.1,29.92,NE,41,0.0,1.0,96,0.00,,---,0.87,VWS V14.01,2013-02-23 15:41:00,
2013-02-23 09:46:00,57.2,56.1,29.92,NNW,345,0.0,2.0,96,0.00,,---,0.87,VWS V14.01,2013-02-23 15:46:00,
2013-02-23 09:51:00,57.2,56.1,29.92,ESE,104,1.0,2.0,96,0.00,,---,0.87,VWS V14.01,2013-02-23 15:51:00,
2013-02-23 09:56:00,57.2,56.1,29.92,ENE,65,4.0,5.0,96,0.00,,---,0.87,VWS V14.01,2013-02-23 15:56:00,
2013-02-23 10:01:00,57.5,56.4,29.91,NNE,13,2.0,2.0,96,0.00,,---,0.87,VWS V14.01,2013-02-23 16:01:00,
2013-02-23 10:06:00,57.6,56.5,29.91,ENE,68,0.0,3.0,96,0.00,,---,0.87,VWS V14.01,2013-02-23 16:06:00,
2013-02-23 10:11:00,57.8,56.4,29.91,ENE,68,2.0,7.0,95,0.00,,---,0.87,VWS V14.01,2013-02-23 16:11:00,
2013-02-23 10:16:00,57.8,56.4,29.91,NNE,17,1.0,2.0,95,0.00,,---,0.87,VWS V14.01,2013-02-23 16:16:00,
2013-02-23 10:21:00,58.0,56.6,29.91,SE,129,2.0,4.0,95,0.00,,---,0.87,VWS V14.01,2013-02-23 16:21:00,
2013-02-23 10:26:00,58.1,56.7,29.91,ENE,58,3.0,7.0,95,0.00,,---,0.87,VWS V14.01,2013-02-23 16:26:00,
2013-02-23 10:31:00,58.1,56.7,29.90,ESE,102,1.0,2.0,95,0.00,,---,0.87,VWS V14.01,2013-02-23 16:31:00,
2013-02-23 10:36:00,58.3,56.9,29.90,East,79,6.0,6.0,95,0.00,,---,0.87,VWS V14.01,2013-02-23 16:36:00,
2013-02-23 10:41:00,58.5,56.8,29.90,ENE,76,2.0,2.0,94,0.00,,---,0.87,VWS V14.01,2013-02-23 16:41:00,
2013-02-23 10:46:00,58.6,56.9,29.91,ENE,77,1.0,2.0,94,0.00,,---,0.87,VWS V14.01,2013-02-23 16:46:00,
2013-02-23 10:51:00,58.8,57.1,29.90,NNE,15,0.0,1.0,94,0.00,,---,0.87,VWS V14.01,2013-02-23 16:51:00,
2013-02-23 10:56:00,59.0,57.3,29.90,NNW,337,1.0,2.0,94,0.00,,---,0.87,VWS V14.01,2013-02-23 16:56:00,
2013-02-23 11:01:00,59.0,57.0,29.91,NW,309,1.0,5.0,93,0.00,,---,0.87,VWS V14.01,2013-02-23 17:01:00,
2013-02-23 11:06:00,59.0,57.0,29.91,NNW,341,1.0,1.0,93,0.00,,---,0.87,VWS V14.01,2013-02-23 17:06:00,
2013-02-23 11:11:00,59.1,57.1,29.91,NNW,329,0.0,1.0,93,0.00,,---,0.87,VWS V14.01,2013-02-23 17:11:00,
2013-02-23 11:16:00,59.2,57.2,29.92,West,276,0.0,0.0,93,0.00,,---,0.87,VWS V14.01,2013-02-23 17:16:00,
2013-02-23 11:21:00,59.5,57.5,29.92,NNW,345,0.0,1.0,93,0.00,,---,0.87,VWS V14.01,2013-02-23 17:21:00,
2013-02-23 11:26:00,59.7,57.7,29.92,NNW,345,1.0,1.0,93,0.00,,---,0.87,VWS V14.01,2013-02-23 17:26:00,
2013-02-23 11:31:00,59.9,57.9,29.92,NNW,340,2.0,2.0,93,0.00,,---,0.87,VWS V14.01,2013-02-23 17:31:00,
2013-02-23 11:36:00,59.8,57.5,29.92,NNW,337,1.0,2.0,92,0.00,,---,0.87,VWS V14.01,2013-02-23 17:36:00,
2013-02-23 11:41:00,59.5,57.2,29.92,NNW,333,1.0,1.0,92,0.00,,---,0.87,VWS V14.01,2013-02-23 17:41:00,
2013-02-23 11:46:00,59.5,57.2,29.93,NNW,339,3.0,4.0,92,0.00,,---,0.87,VWS V14.01,2013-02-23 17:46:00,
2013-02-23 11:51:00,59.3,57.0,29.92,NNW,338,1.0,2.0,92,0.00,,---,0.87,VWS V14.01,2013-02-23 17:51:00,
2013-02-23 11:56:00,59.4,57.4,29.91,NNE,27,0.0,1.0,93,0.00,,---,0.87,VWS V14.01,2013-02-23 17:56:00,
2013-02-23 12:01:00,59.5,57.2,29.90,NE,56,1.0,2.0,92,0.00,,---,0.87,VWS V14.01,2013-02-23 18:01:00,
2013-02-23 12:06:00,59.5,57.2,29.90,NE,44,1.0,3.0,92,0.00,,---,0.87,VWS V14.01,2013-02-23 18:06:00,
2013-02-23 12:11:00,59.5,57.2,29.90,NW,325,0.0,0.0,92,0.00,,---,0.87,VWS V14.01,2013-02-23 18:11:00,
2013-02-23 12:16:00,59.4,57.1,29.91,WNW,291,1.0,2.0,92,0.00,,---,0.87,VWS V14.01,2013-02-23 18:16:00,
2013-02-23 12:21:00,59.3,57.0,29.90,ENE,66,2.0,2.0,92,0.00,,---,0.87,VWS V14.01,2013-02-23 18:21:00,
2013-02-23 12:26:00,59.3,57.0,29.90,NNW,330,2.0,2.0,92,0.00,,---,0.87,VWS V14.01,2013-02-23 18:26:00,
2013-02-23 12:31:00,59.3,57.0,29.89,ENE,71,3.0,6.0,92,0.00,,---,0.87,VWS V14.01,2013-02-23 18:31:00,
2013-02-23 12:36:00,59.3,57.0,29.90,NW,313,1.0,2.0,92,0.00,,---,0.87,VWS V14.01,2013-02-23 18:36:00,
2013-02-23 12:41:00,59.3,57.0,29.90,NNE,18,1.0,1.0,92,0.00,,---,0.87,VWS V14.01,2013-02-23 18:41:00,
2013-02-23 12:46:00,59.4,57.1,29.90,NNW,347,0.0,2.0,92,0.00,,---,0.87,VWS V14.01,2013-02-23 18:46:00,
2013-02-23 12:51:00,59.4,57.1,29.90,North,357,0.0,2.0,92,0.00,,---,0.87,VWS V14.01,2013-02-23 18:51:00,
2013-02-23 12:56:00,59.5,57.2,29.89,North,8,0.0,0.0,92,0.00,,---,0.87,VWS V14.01,2013-02-23 18:56:00,
2013-02-23 13:01:00,59.5,57.2,29.89,North,358,0.0,0.0,92,0.00,,---,0.87,VWS V14.01,2013-02-23 19:01:00,
2013-02-23 13:06:00,59.5,57.5,29.90,NNE,17,0.0,2.0,93,0.00,,---,0.87,VWS V14.01,2013-02-23 19:06:00,
2013-02-23 13:11:00,59.5,57.5,29.90,NNW,336,0.0,1.0,93,0.00,,---,0.87,VWS V14.01,2013-02-23 19:11:00,
2013-02-23 13:16:00,59.5,57.5,29.90,North,6,1.0,1.0,93,0.00,,---,0.87,VWS V14.01,2013-02-23 19:16:00,
2013-02-23 13:21:00,59.4,57.4,29.90,North,352,0.0,0.0,93,0.00,,---,0.87,VWS V14.01,2013-02-23 19:21:00,
2013-02-23 13:26:00,59.3,57.3,29.90,NW,305,1.0,1.0,93,0.01,,---,0.88,VWS V14.01,2013-02-23 19:26:00,
2013-02-23 13:31:00,59.2,57.5,29.90,NNW,342,0.0,1.0,94,0.03,,---,0.90,VWS V14.01,2013-02-23 19:31:00,
2013-02-23 13:36:00,59.1,57.7,29.91,WSW,252,0.0,0.0,95,0.05,,---,0.92,VWS V14.01,2013-02-23 19:36:00,
2013-02-23 13:41:00,58.8,57.4,29.91,WSW,252,0.0,0.0,95,0.07,,---,0.94,VWS V14.01,2013-02-23 19:41:00,
2013-02-23 13:46:00,58.8,57.4,29.92,WSW,239,0.0,0.0,95,0.08,,---,0.95,VWS V14.01,2013-02-23 19:46:00,
2013-02-23 13:51:00,58.7,57.6,29.92,WSW,240,0.0,0.0,96,0.09,,---,0.96,VWS V14.01,2013-02-23 19:51:00,
2013-02-23 13:56:00,58.7,57.6,29.91,WSW,241,0.0,0.0,96,0.10,,---,0.97,VWS V14.01,2013-02-23 19:56:00,
2013-02-23 14:01:00,58.7,57.6,29.90,WSW,240,0.0,0.0,96,0.11,,---,0.98,VWS V14.01,2013-02-23 20:01:00,
2013-02-23 14:06:00,58.7,57.6,29.90,WSW,238,0.0,0.0,96,0.12,,---,0.99,VWS V14.01,2013-02-23 20:06:00,
2013-02-23 14:11:00,58.6,57.5,29.90,WSW,240,0.0,0.0,96,0.13,,---,1.00,VWS V14.01,2013-02-23 20:11:00,
2013-02-23 14:16:00,58.5,57.7,29.89,ESE,110,0.0,0.0,97,0.14,,---,1.01,VWS V14.01,2013-02-23 20:16:00,
2013-02-23 14:21:00,58.5,57.7,29.88,East,89,1.0,1.0,97,0.15,,---,1.02,VWS V14.01,2013-02-23 20:21:00,
2013-02-23 14:26:00,58.4,57.6,29.88,ENE,73,1.0,1.0,97,0.16,,---,1.03,VWS V14.01,2013-02-23 20:26:00,
2013-02-23 14:31:00,58.2,57.4,29.87,ESE,118,1.0,1.0,97,0.15,,---,1.04,VWS V14.01,2013-02-23 20:31:00,
2013-02-23 14:36:00,58.2,57.4,29.87,East,99,0.0,2.0,97,0.12,,---,1.04,VWS V14.01,2013-02-23 20:36:00,
2013-02-23 14:41:00,58.2,57.4,29.86,East,101,1.0,1.0,97,0.12,,---,1.06,VWS V14.01,2013-02-23 20:41:00,
2013-02-23 14:46:00,58.1,57.3,29.85,SE,129,2.0,3.0,97,0.11,,---,1.06,VWS V14.01,2013-02-23 20:46:00,
2013-02-23 14:51:00,58.0,57.2,29.84,SE,129,2.0,3.0,97,0.11,,---,1.07,VWS V14.01,2013-02-23 20:51:00,
2013-02-23 14:56:00,58.0,57.4,29.82,ENE,78,4.0,5.0,98,0.10,,---,1.07,VWS V14.01,2013-02-23 20:56:00,
2013-02-23 15:01:00,58.0,57.4,29.82,ESE,119,6.0,6.0,98,0.11,,---,1.08,VWS V14.01,2013-02-23 21:01:00,
2013-02-23 15:06:00,58.0,57.4,29.81,East,94,2.0,4.0,98,0.09,,---,1.08,VWS V14.01,2013-02-23 21:06:00,
2013-02-23 15:11:00,57.8,57.2,29.78,East,85,6.0,6.0,98,0.09,,---,1.09,VWS V14.01,2013-02-23 21:11:00,
2013-02-23 15:16:00,57.7,57.1,29.76,ENE,69,2.0,6.0,98,0.09,,---,1.09,VWS V14.01,2013-02-23 21:16:00,
2013-02-23 15:21:00,57.8,57.2,29.76,East,88,2.0,3.0,98,0.08,,---,1.09,VWS V14.01,2013-02-23 21:21:00,
2013-02-23 15:26:00,57.8,57.2,29.79,North,8,1.0,2.0,98,0.06,,---,1.09,VWS V14.01,2013-02-23 21:26:00,
2013-02-23 15:31:00,57.7,57.1,29.79,NE,47,2.0,5.0,98,0.06,,---,1.09,VWS V14.01,2013-02-23 21:31:00,
2013-02-23 15:36:00,57.7,57.1,29.78,ESE,103,0.0,1.0,98,0.05,,---,1.09,VWS V14.01,2013-02-23 21:36:00,
2013-02-23 15:41:00,57.9,57.3,29.79,ENE,61,0.0,3.0,98,0.04,,---,1.09,VWS V14.01,2013-02-23 21:41:00,
2013-02-23 15:46:00,57.8,57.2,29.79,East,81,0.0,0.0,98,0.03,,---,1.09,VWS V14.01,2013-02-23 21:46:00,
2013-02-23 15:51:00,57.9,57.3,29.81,NNW,328,0.0,0.0,98,0.02,,---,1.09,VWS V14.01,2013-02-23 21:51:00,
2013-02-23 15:56:00,57.9,57.3,29.82,WNW,302,1.0,2.0,98,0.02,,---,1.09,VWS V14.01,2013-02-23 21:56:00,
2013-02-23 16:01:00,57.8,57.2,29.82,NW,325,0.0,2.0,98,0.01,,---,1.09,VWS V14.01,2013-02-23 22:01:00,
2013-02-23 16:06:00,57.8,57.2,29.83,NNW,328,0.0,1.0,98,0.01,,---,1.09,VWS V14.01,2013-02-23 22:06:00,
2013-02-23 16:11:00,57.9,57.3,29.84,NW,321,0.0,1.0,98,0.00,,---,1.09,VWS V14.01,2013-02-23 22:11:00,
2013-02-23 16:16:00,57.9,57.3,29.84,NW,321,0.0,0.0,98,0.00,,---,1.09,VWS V14.01,2013-02-23 22:16:00,
2013-02-23 16:21:00,58.1,57.5,29.84,NW,322,0.0,0.0,98,0.00,,---,1.09,VWS V14.01,2013-02-23 22:21:00,
2013-02-23 16:26:00,58.1,57.5,29.84,North,4,0.0,0.0,98,0.00,,---,1.09,VWS V14.01,2013-02-23 22:26:00,
2013-02-23 16:31:00,58.2,57.6,29.85,North,4,0.0,0.0,98,0.00,,---,1.09,VWS V14.01,2013-02-23 22:31:00,
2013-02-23 16:36:00,58.2,57.6,29.85,NNW,343,0.0,0.0,98,0.00,,---,1.09,VWS V14.01,2013-02-23 22:36:00,
2013-02-23 16:41:00,58.1,57.5,29.85,NNW,340,1.0,2.0,98,0.00,,---,1.09,VWS V14.01,2013-02-23 22:41:00,
2013-02-23 16:46:00,58.0,57.4,29.84,NNW,335,0.0,0.0,98,0.00,,---,1.09,VWS V14.01,2013-02-23 22:46:00,
2013-02-23 16:51:00,57.9,57.3,29.85,NNW,338,0.0,1.0,98,0.00,,---,1.09,VWS V14.01,2013-02-23 22:51:00,
2013-02-23 16:57:00,57.9,57.3,29.85,NNW,338,1.0,3.0,98,0.00,,---,1.09,VWS V14.01,2013-02-23 22:57:00,
2013-02-23 17:02:00,57.8,57.2,29.85,NE,56,0.0,0.0,98,0.00,,---,1.09,VWS V14.01,2013-02-23 23:02:00,
2013-02-23 17:07:00,57.9,57.3,29.86,NNW,348,1.0,1.0,98,0.00,,---,1.09,VWS V14.01,2013-02-23 23:07:00,
2013-02-23 17:12:00,57.8,57.2,29.87,NNW,337,1.0,2.0,98,0.00,,---,1.09,VWS V14.01,2013-02-23 23:12:00,
2013-02-23 17:17:00,57.8,57.2,29.87,NNE,20,1.0,2.0,98,0.00,,---,1.09,VWS V14.01,2013-02-23 23:17:00,
2013-02-23 17:22:00,57.8,57.2,29.87,NNE,17,1.0,2.0,98,0.00,,---,1.09,VWS V14.01,2013-02-23 23:22:00,
2013-02-23 17:27:00,57.8,57.2,29.87,NNE,19,0.0,0.0,98,0.00,,---,1.09,VWS V14.01,2013-02-23 23:27:00,
2013-02-23 17:33:00,57.8,57.2,29.88,NNE,18,0.0,0.0,98,0.00,,---,1.09,VWS V14.01,2013-02-23 23:33:00,
2013-02-23 17:39:00,57.8,57.2,29.88,NNE,17,0.0,0.0,98,0.00,,---,1.09,VWS V14.01,2013-02-23 23:39:00,
2013-02-23 17:44:00,57.7,57.1,29.88,NNE,33,0.0,1.0,98,0.00,,---,1.09,VWS V14.01,2013-02-23 23:44:00,
2013-02-23 17:49:00,57.7,57.1,29.88,ENE,69,0.0,0.0,98,0.00,,---,1.09,VWS V14.01,2013-02-23 23:49:00,
2013-02-23 17:55:00,57.7,57.1,29.88,North,3,0.0,1.0,98,0.00,,---,1.09,VWS V14.01,2013-02-23 23:55:00,
2013-02-23 18:00:00,57.6,57.0,29.88,North,1,0.0,1.0,98,0.00,,---,1.09,VWS V14.01,2013-02-24 00:00:00,
2013-02-23 18:05:00,57.6,57.0,29.88,North,1,0.0,1.0,98,0.00,,---,1.09,VWS V14.01,2013-02-24 00:05:00,
2013-02-23 18:11:00,57.6,57.0,29.89,NNW,342,0.0,0.0,98,0.00,,---,1.09,VWS V14.01,2013-02-24 00:11:00,
2013-02-23 18:17:00,57.6,57.0,29.88,NNW,342,0.0,0.0,98,0.00,,---,1.09,VWS V14.01,2013-02-24 00:17:00,
2013-02-23 18:23:00,57.6,57.0,29.90,NNW,328,0.0,1.0,98,0.00,,---,1.09,VWS V14.01,2013-02-24 00:23:00,
2013-02-23 18:28:00,57.6,57.0,29.89,NW,316,0.0,2.0,98,0.00,,---,1.09,VWS V14.01,2013-02-24 00:28:00,
2013-02-23 18:33:00,57.6,57.0,29.90,NW,316,0.0,0.0,98,0.00,,---,1.09,VWS V14.01,2013-02-24 00:33:00,
2013-02-23 18:38:00,57.5,56.9,29.90,NE,52,0.0,0.0,98,0.00,,---,1.09,VWS V14.01,2013-02-24 00:38:00,
2013-02-23 18:44:00,57.5,56.9,29.90,NE,53,0.0,0.0,98,0.00,,---,1.09,VWS V14.01,2013-02-24 00:44:00,
2013-02-23 18:49:00,57.4,56.8,29.90,NE,52,0.0,0.0,98,0.00,,---,1.09,VWS V14.01,2013-02-24 00:49:00,
2013-02-23 18:54:00,57.4,56.8,29.91,NE,52,0.0,0.0,98,0.00,,---,1.09,VWS V14.01,2013-02-24 00:54:00,
2013-02-23 18:59:00,57.3,56.7,29.91,NE,52,0.0,0.0,98,0.00,,---,1.09,VWS V14.01,2013-02-24 00:59:00,
2013-02-23 19:05:00,57.3,56.7,29.91,NE,53,0.0,0.0,98,0.00,,---,1.09,VWS V14.01,2013-02-24 01:05:00,
2013-02-23 19:10:00,57.3,56.7,29.91,NE,52,0.0,0.0,98,0.00,,---,1.09,VWS V14.01,2013-02-24 01:10:00,
2013-02-23 19:15:00,57.4,56.8,29.91,NE,53,0.0,0.0,98,0.00,,---,1.09,VWS V14.01,2013-02-24 01:15:00,
2013-02-23 19:20:00,57.4,56.8,29.90,NE,50,0.0,0.0,98,0.00,,---,1.09,VWS V14.01,2013-02-24 01:20:00,
2013-02-23 19:25:00,57.5,56.9,29.90,NE,49,0.0,0.0,98,0.00,,---,1.09,VWS V14.01,2013-02-24 01:25:00,
2013-02-23 19:30:00,57.4,56.8,29.90,NE,49,0.0,0.0,98,0.00,,---,1.09,VWS V14.01,2013-02-24 01:30:00,
2013-02-23 19:35:00,57.4,56.8,29.91,NNW,329,0.0,2.0,98,0.00,,---,1.09,VWS V14.01,2013-02-24 01:35:00,
2013-02-23 19:40:00,57.4,56.8,29.91,SW,229,0.0,0.0,98,0.00,,---,1.09,VWS V14.01,2013-02-24 01:40:00,
2013-02-23 19:46:00,57.5,56.9,29.91,SW,227,0.0,0.0,98,0.00,,---,1.09,VWS V14.01,2013-02-24 01:46:00,
2013-02-23 19:51:00,57.4,56.8,29.92,SW,229,0.0,0.0,98,0.00,,---,1.09,VWS V14.01,2013-02-24 01:51:00,
2013-02-23 19:56:00,57.3,56.7,29.92,NNW,345,0.0,1.0,98,0.00,,---,1.09,VWS V14.01,2013-02-24 01:56:00,
2013-02-23 20:01:00,57.2,56.6,29.91,NW,326,0.0,1.0,98,0.00,,---,1.09,VWS V14.01,2013-02-24 02:01:00,
2013-02-23 20:07:00,57.1,56.5,29.92,NW,323,1.0,1.0,98,0.00,,---,1.09,VWS V14.01,2013-02-24 02:07:00,
2013-02-23 20:12:00,57.0,56.4,29.92,WSW,249,0.0,0.0,98,0.00,,---,1.09,VWS V14.01,2013-02-24 02:12:00,
2013-02-23 20:17:00,56.9,56.3,29.92,NNW,336,0.0,3.0,98,0.00,,---,1.09,VWS V14.01,2013-02-24 02:17:00,
2013-02-23 20:22:00,56.8,56.2,29.92,NW,308,4.0,4.0,98,0.00,,---,1.09,VWS V14.01,2013-02-24 02:22:00,
2013-02-23 20:27:00,56.8,56.2,29.93,NW,317,2.0,2.0,98,0.00,,---,1.09,VWS V14.01,2013-02-24 02:27:00,
2013-02-23 20:32:00,56.7,55.9,29.93,NNE,20,0.0,0.0,97,0.00,,---,1.09,VWS V14.01,2013-02-24 02:32:00,
2013-02-23 20:37:00,56.7,55.9,29.93,NW,316,0.0,0.0,97,0.00,,---,1.09,VWS V14.01,2013-02-24 02:37:00,
2013-02-23 20:42:00,56.6,55.8,29.94,NW,323,0.0,0.0,97,0.00,,---,1.09,VWS V14.01,2013-02-24 02:42:00,
2013-02-23 20:47:00,56.6,55.8,29.94,NNW,328,0.0,0.0,97,0.00,,---,1.09,VWS V14.01,2013-02-24 02:47:00,
2013-02-23 20:52:00,56.5,55.7,29.94,NNE,12,0.0,1.0,97,0.00,,---,1.09,VWS V14.01,2013-02-24 02:52:00,
2013-02-23 20:57:00,56.5,55.7,29.94,North,9,1.0,1.0,97,0.00,,---,1.09,VWS V14.01,2013-02-24 02:57:00,
2013-02-23 21:02:00,56.4,55.6,29.94,NW,321,0.0,0.0,97,0.00,,---,1.09,VWS V14.01,2013-02-24 03:02:00,
2013-02-23 21:07:00,56.4,55.6,29.94,NW,321,0.0,0.0,97,0.00,,---,1.09,VWS V14.01,2013-02-24 03:07:00,
2013-02-23 21:12:00,56.3,55.5,29.94,North,357,0.0,0.0,97,0.00,,---,1.09,VWS V14.01,2013-02-24 03:12:00,
2013-02-23 21:17:00,56.3,55.5,29.95,NW,322,0.0,0.0,97,0.00,,---,1.09,VWS V14.01,2013-02-24 03:17:00,
2013-02-23 21:22:00,56.2,55.4,29.95,NNW,333,0.0,0.0,97,0.00,,---,1.09,VWS V14.01,2013-02-24 03:22:00,
2013-02-23 21:28:00,56.1,55.3,29.95,NNW,333,2.0,2.0,97,0.00,,---,1.09,VWS V14.01,2013-02-24 03:28:00,
2013-02-23 21:33:00,56.0,55.2,29.95,NNE,33,0.0,1.0,97,0.00,,---,1.09,VWS V14.01,2013-02-24 03:33:00,
2013-02-23 21:39:00,56.0,55.2,29.95,North,355,1.0,1.0,97,0.00,,---,1.09,VWS V14.01,2013-02-24 03:39:00,
2013-02-23 21:44:00,55.9,55.1,29.95,ESE,102,0.0,1.0,97,0.00,,---,1.09,VWS V14.01,2013-02-24 03:44:00,
2013-02-23 21:50:00,55.8,55.0,29.96,NE,35,0.0,0.0,97,0.00,,---,1.09,VWS V14.01,2013-02-24 03:50:00,
2013-02-23 21:55:00,55.7,54.9,29.96,NNW,329,0.0,1.0,97,0.00,,---,1.09,VWS V14.01,2013-02-24 03:55:00,
2013-02-23 22:01:00,55.7,54.9,29.96,NNW,330,0.0,0.0,97,0.00,,---,1.09,VWS V14.01,2013-02-24 04:01:00,
2013-02-23 22:06:00,55.6,54.8,29.96,NNW,336,1.0,2.0,97,0.00,,---,1.09,VWS V14.01,2013-02-24 04:06:00,
2013-02-23 22:11:00,55.5,54.4,29.96,North,358,0.0,1.0,96,0.00,,---,1.09,VWS V14.01,2013-02-24 04:11:00,
2013-02-23 22:16:00,55.3,54.2,29.96,NE,35,1.0,2.0,96,0.00,,---,1.09,VWS V14.01,2013-02-24 04:16:00,
2013-02-23 22:21:00,55.2,54.1,29.96,North,349,1.0,3.0,96,0.00,,---,1.09,VWS V14.01,2013-02-24 04:21:00,
2013-02-23 22:26:00,55.2,54.1,29.96,NNW,335,0.0,1.0,96,0.00,,---,1.09,VWS V14.01,2013-02-24 04:26:00,
2013-02-23 22:31:00,55.2,54.1,29.96,NNW,345,0.0,1.0,96,0.00,,---,1.09,VWS V14.01,2013-02-24 04:31:00,
2013-02-23 22:36:00,55.2,54.1,29.96,NNE,18,1.0,1.0,96,0.00,,---,1.09,VWS V14.01,2013-02-24 04:36:00,
2013-02-23 22:41:00,55.1,54.0,29.96,East,79,1.0,2.0,96,0.00,,---,1.09,VWS V14.01,2013-02-24 04:41:00,
2013-02-23 22:47:00,55.2,54.1,29.96,East,79,0.0,0.0,96,0.00,,---,1.09,VWS V14.01,2013-02-24 04:47:00,
2013-02-23 22:52:00,55.2,54.1,29.96,NNE,20,0.0,0.0,96,0.00,,---,1.09,VWS V14.01,2013-02-24 04:52:00,
2013-02-23 22:58:00,55.1,54.0,29.96,ENE,73,0.0,1.0,96,0.00,,---,1.09,VWS V14.01,2013-02-24 04:58:00,
2013-02-23 23:00:00,55.1,54.0,29.96,North,354,0.0,1.0,96,0.00,,---,1.09,VWS V14.01,2013-02-24 05:00:00,
2013-02-23 23:01:00,55.1,54.0,29.96,North,354,0.0,0.0,96,0.00,,---,1.09,VWS V14.01,2013-02-24 05:01:00,
2013-02-23 23:06:00,55.0,53.6,29.96,North,6,1.0,1.0,95,0.00,,---,1.09,VWS V14.01,2013-02-24 05:06:00,
2013-02-23 23:10:00,55.0,53.6,29.96,North,6,0.0,0.0,95,0.00,,---,1.09,VWS V14.01,2013-02-24 05:10:00,
2013-02-23 23:16:00,54.9,53.5,29.97,NNE,23,1.0,1.0,95,0.00,,---,1.09,VWS V14.01,2013-02-24 05:16:00,
2013-02-23 23:21:00,54.9,53.5,29.96,North,6,0.0,0.0,95,0.00,,---,1.09,VWS V14.01,2013-02-24 05:21:00,
2013-02-23 23:26:00,54.9,53.5,29.96,NNE,25,0.0,0.0,95,0.00,,---,1.09,VWS V14.01,2013-02-24 05:26:00,
2013-02-23 23:32:00,54.8,53.4,29.96,NNW,333,0.0,1.0,95,0.00,,---,1.09,VWS V14.01,2013-02-24 05:32:00,
2013-02-23 23:37:00,54.7,53.3,29.96,North,6,0.0,0.0,95,0.00,,---,1.09,VWS V14.01,2013-02-24 05:37:00,
2013-02-23 23:43:00,54.7,53.3,29.95,East,81,0.0,0.0,95,0.00,,---,1.09,VWS V14.01,2013-02-24 05:43:00,
2013-02-23 23:49:00,54.6,53.2,29.96,East,88,0.0,0.0,95,0.00,,---,1.09,VWS V14.01,2013-02-24 05:49:00,
2013-02-23 23:54:00,54.6,53.2,29.96,East,88,1.0,1.0,95,0.00,,---,1.09,VWS V14.01,2013-02-24 05:54:00,
2013-02-23 23:59:00,54.6,53.2,29.96,East,87,0.0,0.0,95,0.00,,---,0.00,VWS V14.01,2013-02-24 05:59:00,